Hurricane Symbol View the latest observations near Atlantic Potential Tropical Cyclone One.

Station 46071 (LLNR 27545) - WESTERN ALEUTIANS - 14NM SOUTH OF AMCHITKA IS, AK Image indicating link to RSS feed of recent meteorological observations for station 46071


Conditions at 46071 as of
(11:20 pm HAST on 06/18/2024)
0920 GMT on 06/19/2024:
     

Click on the graph icon in the table below to see a time series plot of the last five days of that observation.

5-day plot - Wind Direction Wind Direction (WDIR):NNE ( 30 deg true )
5-day plot - Wind Speed Wind Speed (WSPD): 13.6 kts
5-day plot - Wind Gust Wind Gust (GST): 17.5 kts
5-day plot - Wave Height Wave Height (WVHT): 4.3 ft
5-day plot - Dominant Wave Period Dominant Wave Period (DPD): 15 sec
5-day plot - Average Wave Period Average Period (APD): 5.4 sec
5-day plot - Mean Wave Direction Mean Wave Direction (MWD):SSE ( 159 deg true )
5-day plot - Atmospheric Pressure Atmospheric Pressure (PRES):29.87 in
5-day plot - Air Temperature Air Temperature (ATMP): 41.7 °F
5-day plot - Water Temperature Water Temperature (WTMP): 43.2 °F
5-day plot - Dew Point Dew Point (DEWP): 39.7 °F
5-day plot - Wind Chill Wind Chill (CHILL): 33.8 °F
5-day plot - Wind Speed at 10 Meters Wind Speed at 10 meters (WSPD10M): 15.5 kts
5-day plot - Wind Speed at 20 Meters Wind Speed at 20 meters (WSPD20M): 15.5 kts
5-day plot -  Wind Speed, Wind Gust and Atmospheric Pressure Combined plot of Wind Speed, Gust, and Air Pressure
Supplemental Measurements
Lowest 1-minute Pressure
Time (HAST)Pressure
11:20 pm29.87 in
Highest 1-minute Wind Speed
Time (HAST)5-day plot - 1-Minute Wind Speed WSPD 5-day plot - 1-Minute Wind Direction WDIR
11:17 pm 15.5 ktsNNE ( 30 deg true )
Previous observations
TIME
(HAST)
5-day plot - Wind Direction
WDIR
 
5-day plot - Wind Speed
WSPD
kts
5-day plot - Wind Gust
GST
kts
5-day plot - Wave Height
WVHT
ft
5-day plot - Dominant Wave Period
DPD
sec
5-day plot - Average Wave Period
APD
sec
5-day plot - Mean Wave Direction
MWD
 
5-day plot - Atmospheric Pressure
PRES
in
5-day plot - Pressure Tendency
PTDY
in
5-day plot - Air Temperature
ATMP
°F
5-day plot - Water Temperature
WTMP
°F
5-day plot - Dew Point
DEWP
°F
5-day plot - Salinity
SAL
psu
5-day plot - Visibility
VIS
nmi
5-day plot - Tide (above MLLW)
TIDE
ft
2024-06-18 11:10 pmNNE 13.6 17.5 4.3-5.4SSE29.87- 41.5 43.2 39.6---
2024-06-18 11:00 pmNNE 13.6 17.5----29.87+0.00 41.5 43.2 39.7---
2024-06-18 10:50 pmNNE 13.6 17.5 3.9 155.4SSE29.86- 41.5 43.2 39.7---
2024-06-18 10:40 pm N 13.6 19.4 3.9-5.4SSE29.86- 41.4 43.2 39.7---
2024-06-18 10:30 pmNNE 13.6 17.5----29.86- 41.4 43.2 39.9---
2024-06-18 10:20 pmNNE 13.6 17.5 3.6 135.2SSE29.87- 41.2 43.3 39.9---
2024-06-18 10:10 pmNNE 13.6 17.5 3.6-5.2SSE29.86- 41.2 43.3 40.1---
2024-06-18 10:00 pm N 13.6 15.5----29.86+0.00 41.0 43.3 39.9---
2024-06-18 09:50 pm N 13.6 17.5 4.3 155.6SSE29.87- 41.0 43.3 39.7---
2024-06-18 09:40 pm N 13.6 15.5 4.3-5.6SSE29.87- 41.0 43.3 39.7---
2024-06-18 09:30 pm N 13.6 15.5----29.87- 41.2 43.3 39.7---
2024-06-18 09:20 pm N 13.6 15.5 4.3 145.5SSE29.87- 41.2 43.3 39.6---
2024-06-18 09:10 pm N 13.6 15.5 4.3-5.5SSE29.87- 41.2 43.3 39.6---
2024-06-18 09:00 pm N 11.7 15.5----29.87+0.01 41.2 43.3 39.7---
2024-06-18 08:50 pm N 11.7 17.5 3.9 155.4SSE29.87- 41.0 43.3 39.4---
2024-06-18 08:40 pm N 13.6 15.5 3.9-5.4SSE29.86- 41.0 43.3 39.7---
2024-06-18 08:30 pm N 13.6 17.5----29.87- 40.8 43.3 39.7---
2024-06-18 08:20 pm N 13.6 17.5 4.3 145.8SSE29.86- 41.0 43.5 40.3---
2024-06-18 08:10 pm N 13.6 15.5 4.3-5.8SSE29.86- 40.8 43.5 40.3---
2024-06-18 08:00 pmNNE 13.6 17.5----29.86+0.00 40.6 43.3 40.1---
2024-06-18 07:50 pmNNE 13.6 15.5 4.3 155.7SSE29.86- 40.3 43.5 39.7---
2024-06-18 07:40 pmNNE 13.6 17.5----29.86- 40.3 43.5 39.7---
2024-06-18 07:30 pmNNE 13.6 15.5----29.86- 40.1 43.5 39.6---
2024-06-18 07:20 pmNNE 13.6 15.5 4.3 155.7SSE29.85- 40.3 43.3 39.7---
2024-06-18 07:10 pm N 11.7 15.5 4.3-5.7SSE29.86- 40.5 43.3 39.9---
2024-06-18 07:00 pmNNE 11.7 15.5----29.86+0.00 40.5 43.3 39.9---
2024-06-18 06:50 pm N 13.6 15.5 4.3 155.9SSE29.85- 40.6 43.3 40.1---
2024-06-18 06:40 pm N 13.6 15.5 4.3-5.9SSE29.85- 40.8 43.3 40.3---
2024-06-18 06:30 pm N 13.6 15.5----29.86- 40.8 43.3 40.3---
2024-06-18 06:20 pmNNE 11.7 13.6 4.3 155.8SSE29.86- 40.8 43.5 40.3---
2024-06-18 06:10 pmNNE 11.7 13.6 4.3-5.8SSE29.86- 40.8 43.5 40.3---
2024-06-18 06:00 pmNNE 11.7 13.6----29.86+0.00 40.8 43.5 40.3---
2024-06-18 05:50 pmNNE 11.7 15.5 4.3 155.5 SE29.86- 41.2 43.5 40.6---
2024-06-18 05:40 pm N 13.6 15.5 4.3-5.5 SE29.86- 41.2 43.5 40.6---
2024-06-18 05:30 pm N 11.7 13.6----29.86- 41.2 43.5 40.6---
2024-06-18 05:20 pmNNE 13.6 15.5 4.6 155.8SSE29.86- 41.2 43.5 40.6---
2024-06-18 05:10 pmNNE 13.6 15.5 4.6-5.8SSE29.86- 41.2 43.5 40.6---
2024-06-18 05:00 pmNNE 13.6 15.5----29.86+0.00 41.4 43.5 40.8---
2024-06-18 04:50 pm N 13.6 15.5 4.3 165.5SSE29.86- 41.2 43.5 40.6---
2024-06-18 04:40 pm N 13.6 17.5----29.86- 41.0 43.5 40.5---
2024-06-18 04:30 pm N 13.6 15.5----29.86- 41.0 43.5 40.5---
2024-06-18 04:20 pm N 13.6 17.5 4.3 155.4SSE29.86- 41.0 43.3 40.5---
2024-06-18 04:10 pm N 13.6 17.5 4.3-5.4SSE29.86- 41.0 43.3 40.5---
2024-06-18 04:00 pm N 13.6 15.5----29.86+0.00 40.8 43.3 40.3---
2024-06-18 03:50 pm N 13.6 17.5 4.3 155.8SSE29.86- 41.2 43.3 40.6---
2024-06-18 03:40 pm N 13.6 15.5 4.3-5.8SSE29.86- 41.2 43.3 40.6---
2024-06-18 03:30 pm N 13.6 15.5----29.86- 41.4 43.3 40.8---
2024-06-18 03:20 pm N 13.6 15.5 4.3 155.9SSE29.86- 41.5 43.3 41.0---
2024-06-18 03:10 pm N 13.6 15.5 4.3-5.9SSE29.86- 41.7 43.3 41.2---
2024-06-18 03:00 pm N 13.6 15.5----29.86+0.01 41.9 43.3 41.4---
2024-06-18 02:50 pm N 13.6 15.5 3.9 156.0 SE29.86- 41.9 43.3 41.4---
2024-06-18 02:40 pm N 13.6 15.5 3.9-6.0 SE29.86- 42.1 43.3 41.5---
2024-06-18 02:30 pm N 13.6 15.5----29.86- 42.3 43.3 41.7---
2024-06-18 02:20 pm N 13.6 15.5 3.9 155.7SSE29.86- 42.4 43.3 41.9---
2024-06-18 02:10 pm N 13.6 15.5 3.9-5.7SSE29.86- 42.4 43.3 41.9---
2024-06-18 02:00 pm N 13.6 15.5----29.86+0.01 42.4 43.3 41.9---
2024-06-18 01:50 pm N 13.6 15.5 3.6 155.3 SE29.86- 42.4 43.2 41.9---
2024-06-18 01:40 pm N 13.6 15.5----29.86- 42.4 43.2 41.9---
2024-06-18 01:20 pmNNE 13.6 15.5 4.3 156.1 SE29.85- 42.4 43.2 41.9---
2024-06-18 01:10 pmNNE 11.7 15.5 4.3-6.1 SE29.85- 42.4 43.3 41.9---
2024-06-18 01:00 pmNNE 13.6 15.5----29.85+0.01 42.4 43.3 41.9---
2024-06-18 12:50 pmNNE 13.6 15.5 4.3 156.1SSE29.85- 42.4 43.2 41.9---
2024-06-18 12:40 pmNNE 13.6 15.5----29.85- 42.4 43.2 41.9---
2024-06-18 12:30 pmNNE 13.6 15.5----29.85- 42.6 43.0 42.1---
2024-06-18 12:20 pmNNE 13.6 15.5 3.9 156.2 SE29.85- 42.6 43.0 42.1---
2024-06-18 12:10 pmNNE 13.6 15.5 3.9-6.2 SE29.85- 42.6 43.0 42.1---
2024-06-18 12:00 pmNNE 13.6 15.5----29.85+0.00 42.6 43.0 42.1---
2024-06-18 11:50 amNNE 11.7 15.5 4.3 156.1SSE29.85- 42.6 43.0 42.1---
2024-06-18 11:40 amNNE 13.6 15.5 4.3-6.1SSE29.85- 42.4 43.0 41.9---
2024-06-18 11:30 amNNE 13.6 15.5----29.85- 42.6 43.0 42.1---
2024-06-18 11:20 amNNE 11.7 15.5 4.3 166.5SSE29.85- 42.6 43.0 42.1---
2024-06-18 11:10 amNNE 11.7 13.6 4.3-6.5SSE29.85- 42.4 43.0 41.9---
2024-06-18 11:00 amNNE 11.7 13.6----29.85+0.01 42.6 43.0 42.1---
2024-06-18 10:50 amNNE 9.7 11.7 4.6 166.8SSE29.85- 42.6 43.0 42.1---
2024-06-18 10:40 amNNE 9.7 11.7----29.85- 42.4 43.0 41.9---
2024-06-18 10:30 amNNE 9.7 11.7----29.85- 42.4 43.0 41.9---
2024-06-18 10:20 amNNE 9.7 13.6 3.6 145.9 SE29.85- 42.4 43.0 41.9---
2024-06-18 10:10 amNNE 9.7 11.7 3.6-5.9 SE29.85- 42.4 43.0 41.9---
2024-06-18 10:00 amNNE 9.7 11.7----29.85+0.01 42.4 42.8 41.9---
2024-06-18 09:50 amNNE 9.7 11.7 3.9 166.4 SE29.85- 42.4 42.8 41.9---
2024-06-18 09:40 amNNE 11.7 11.7 3.9-6.4 SE29.85- 42.3 42.8 41.7---
2024-06-18 09:30 amNNE 9.7 13.6----29.85- 42.3 42.8 41.7---
2024-06-18 09:20 amNNE 9.7 11.7 4.3 156.6 SE29.85- 42.3 42.8 41.7---
2024-06-18 09:10 amNNE 9.7 11.7 4.3-6.6 SE29.85- 42.3 42.8 41.7---
2024-06-18 09:00 amNNE 9.7 11.7----29.85+0.02 42.3 42.8 41.7---
2024-06-18 08:50 amNNE 9.7 11.7 4.3 96.4 E29.84- 42.3 42.8 41.7---
2024-06-18 08:40 amNNE 11.7 13.6 4.3-6.4 E29.84- 42.3 42.8 41.7---
2024-06-18 08:30 amNNE 9.7 11.7----29.84- 42.3 42.8 41.7---
2024-06-18 08:20 amNNE 9.7 11.7 4.3 156.5 SE29.84- 42.3 43.0 41.7---
2024-06-18 08:10 amNNE 9.7 11.7 4.3-6.5 SE29.84- 42.3 43.0 41.7---
2024-06-18 08:00 amNNE 9.7 11.7----29.84+0.02 42.3 43.0 41.7---
2024-06-18 07:50 amNNE 9.7 11.7 4.6 167.0 SE29.84- 42.3 43.0 41.7---
2024-06-18 07:40 amNNE 9.7 11.7 4.6-7.0 SE29.84- 42.1 43.0 41.5---
2024-06-18 07:30 amNNE 9.7 9.7----29.84- 42.1 43.0 41.4---
2024-06-18 07:20 amNNE 9.7 11.7 4.6 167.1SSE29.83- 42.1 43.2 41.5---
2024-06-18 07:10 amNNE 9.7 11.7 4.6-7.1SSE29.83- 41.9 43.2 41.4---
2024-06-18 07:00 amNNE 9.7 11.7----29.83+0.02 42.1 43.2 41.5---
2024-06-18 06:50 amNNE 7.8 11.7 4.3 156.6SSE29.83- 41.9 43.2 41.4---
2024-06-18 06:40 amNNE 7.8 9.7 4.3-6.6SSE29.83- 41.9 43.2 41.2---
2024-06-18 06:30 amNNE 7.8 7.8----29.83- 41.9 43.2 41.2---
2024-06-18 06:20 amNNE 5.8 7.8 4.6 167.1SSE29.83- 41.9 43.2 41.0---
2024-06-18 06:10 amNNE 7.8 9.7 4.6-7.1SSE29.83- 41.9 43.3 40.8---
2024-06-18 06:00 amNNE 7.8 9.7----29.82+0.01 42.1 43.3 40.6---
2024-06-18 05:50 amNNE 7.8 9.7 4.3 166.8 SE29.82- 42.1 43.3 40.3---
2024-06-18 05:40 amNNE 7.8 9.7----29.82- 42.3 43.5 40.6---
2024-06-18 05:30 amNNE 7.8 9.7----29.82- 42.3 43.3 40.6---
2024-06-18 05:20 amNNE 7.8 9.7 4.3 166.7SSE29.82- 42.3 43.3 40.8---
2024-06-18 05:10 amNNE 7.8 9.7 4.3-6.7SSE29.82- 42.1 43.2 40.6---
2024-06-18 05:00 amNNE 7.8 9.7----29.82+0.00 42.3 43.3 41.0---
2024-06-18 04:50 amNNE 7.8 9.7 4.6 167.1SSE29.82- 42.1 43.3 40.8---
2024-06-18 04:40 amNNE 7.8 9.7 4.6-7.1SSE29.82- 42.1 43.3 40.8---
2024-06-18 04:30 amNNE 7.8 9.7----29.82- 42.1 43.2 40.8---
2024-06-18 04:20 amNNE 9.7 11.7 4.6 156.6SSE29.81- 41.9 43.3 40.8---
2024-06-18 04:10 am NE 7.8 11.7 4.6-6.6SSE29.81- 42.1 43.3 41.0---
2024-06-18 04:00 am NE 7.8 11.7----29.81+0.00 42.1 43.3 40.8---
2024-06-18 03:50 amNNE 7.8 9.7 4.6 166.5SSE29.81- 41.9 43.3 40.8---
2024-06-18 03:40 am NE 7.8 9.7----29.81- 41.9 43.3 41.0---
2024-06-18 03:30 am NE 7.8 9.7----29.81- 41.9 43.2 41.0---
2024-06-18 03:20 am NE 7.8 9.7 4.6 96.5ENE29.81- 41.9 43.2 41.2---
2024-06-18 03:10 amNNE 9.7 11.7 4.6-6.5ENE29.81- 41.7 43.2 41.0---
2024-06-18 03:00 amNNE 9.7 11.7----29.81+0.00 41.9 43.2 41.4---
2024-06-18 02:50 am NE 9.7 11.7 4.3 156.1 SE29.81- 41.9 43.2 41.4---
2024-06-18 02:40 am NE 9.7 11.7----29.82- 41.7 43.2 41.2---
2024-06-18 02:30 am NE 9.7 11.7----29.82- 41.9 43.2 41.4---
2024-06-18 02:20 am NE 9.7 11.7 4.6 96.3ESE29.82- 41.9 43.0 41.4---
2024-06-18 02:10 am NE 9.7 11.7----29.82- 41.9 43.0 41.4---
2024-06-18 02:00 am NE 9.7 13.6----29.82+0.00 41.9 43.0 41.2---
2024-06-18 01:50 am NE 9.7 11.7 4.6 106.1 SE29.82- 41.9 43.0 41.2---
2024-06-18 01:40 am NE 9.7 11.7----29.81- 41.9 43.0 41.0---
2024-06-18 01:30 am NE 11.7 13.6----29.81- 41.9 43.0 40.8---
2024-06-18 01:20 am NE 11.7 13.6 4.6 166.3SSE29.81- 41.9 43.0 40.8---
2024-06-18 01:10 am NE 11.7 13.6 4.6-6.3SSE29.82- 41.9 43.0 40.6---
2024-06-18 01:00 am NE 11.7 15.5----29.81+0.00 41.9 43.0 40.1---
2024-06-18 12:50 am NE 9.7 11.7 4.6 166.0ESE29.82- 41.7 43.2 39.9---
2024-06-18 12:40 am NE 11.7 13.6 4.6-6.0ESE29.82- 41.5 43.2 39.7---
2024-06-18 12:30 am NE 13.6 15.5----29.81- 41.4 43.2 39.4---
2024-06-18 12:20 am NE 13.6 15.5 4.6 166.1SSE29.82- 41.5 43.2 39.6---
2024-06-18 12:10 amNNE 13.6 17.5 4.6-6.1SSE29.82- 41.2 43.2 39.4---
2024-06-18 12:00 amNNE 13.6 17.5----29.82+0.01 41.2 43.2 39.6---
2024-06-17 11:50 pmNNE 13.6 17.5 4.9 176.1SSE29.82- 41.2 43.0 39.6---
2024-06-17 11:40 pm NE 11.7 17.5 4.9-6.1SSE29.82- 41.0 43.0 39.4---
2024-06-17 11:30 pm NE 13.6 15.5----29.82- 41.4 43.0 39.7---
2024-06-17 11:20 pmNNE 11.7 15.5 4.3 165.6SSE29.82- 41.4 43.0 39.6---
2024-06-17 11:10 pm NE 11.7 15.5 4.3-5.6SSE29.82- 41.4 43.0 39.4---
2024-06-17 11:00 pm NE 13.6 15.5----29.82+0.02 41.4 43.0 39.2---
2024-06-17 10:50 pmNNE 13.6 15.5 5.2 166.4 SE29.82- 41.4 43.0 39.2---

Detailed Wave Summary
for 46071 as of
(11:10 pm HAST on 06/18/2024)
0910 GMT on 06/19/2024:

These wave data are displayed in rounded times.

     

Click on the graph icon in the table below to see a time series plot of the last five days of that observation.

5-day plot - Significant Wave Height Significant Wave Height (WVHT): 4.3 ft
5-day plot - Swell Height Swell Height (SwH): 3.0 ft
5-day plot - Swell Period Swell Period (SwP): 14.8 sec
5-day plot - Swell Direction Swell Direction (SwD):SSE
5-day plot - Wind Wave Height Wind Wave Height (WWH): 3.0 ft
5-day plot - Wind Wave Period Wind Wave Period (WWP): 5.3 sec
5-day plot - Wind Wave Direction Wind Wave Direction (WWD): N
5-day plot - Wave Steepness Wave Steepness (STEEPNESS): SWELL
5-day plot - Average Wave Period Average Wave Period (APD): 5.4 sec
Previous observations
TIME
(HAST)
5-day plot - Wave Height
WVHT
ft
5-day plot - Swell Height
SwH
ft
5-day plot - Swell Period
SwP
sec
5-day plot - Swell Direction
SwD
 
5-day plot - Wind Wave Height
WWH
ft
5-day plot - Wind Wave Period
WWP
sec
5-day plot - Wind Wave Direction
WWD
 
5-day plot - Wave Steepness
STEEPNESS
 
5-day plot - Average Wave Period
APD
sec
2024-06-18 10:40 pm 3.9 3.0 14.8SSE 2.6 5.6 NNE SWELL 5.4
2024-06-18 10:10 pm 3.6 2.6 12.9SSE 2.6 5.3 N SWELL 5.2
2024-06-18 09:40 pm 4.3 3.0 14.8SSE 3.0 5.3 N SWELL 5.6
2024-06-18 09:10 pm 4.3 3.0 13.8SSE 3.0 5.0 NNE SWELL 5.5
2024-06-18 08:40 pm 3.9 3.0 14.8SSE 2.6 5.0 NNE SWELL 5.4
2024-06-18 08:10 pm 4.3 3.3 13.8SSE 2.6 5.3 NNE SWELL 5.8
2024-06-18 07:40 pm 4.3 3.3 14.8SSE 2.6 5.0 NNE SWELL 5.7
2024-06-18 07:10 pm 4.3 3.3 14.8SSE 2.6 5.0 NNE SWELL 5.7
2024-06-18 06:40 pm 4.3 3.6 14.8SSE 2.6 5.3 NNE SWELL 5.9
2024-06-18 06:10 pm 4.3 3.6 14.8SSE 2.6 5.3 NNE SWELL 5.8
2024-06-18 05:40 pm 4.3 3.3 14.8 SE 2.6 5.3 NNE SWELL 5.5
2024-06-18 05:10 pm 4.6 3.6 14.8SSE 2.6 4.5 NNE SWELL 5.8
2024-06-18 04:40 pm 4.3 3.3 16.0SSE 2.6 5.0 N SWELL 5.5
2024-06-18 04:10 pm 4.3 3.0 14.8SSE 2.6 4.5 NNE SWELL 5.4
2024-06-18 03:40 pm 4.3 3.3 14.8SSE 2.6 3.8 NNE SWELL 5.8
2024-06-18 03:10 pm 4.3 3.3 14.8SSE 2.3 4.2 N SWELL 5.9
2024-06-18 02:40 pm 3.9 3.3 14.8 SE 2.3 5.9 NE SWELL 6.0
2024-06-18 02:10 pm 3.9 3.3 14.8SSE 2.3 3.7 NNE SWELL 5.7
2024-06-18 01:40 pm 3.6 3.0 14.8 SE 2.3 4.0 NNE SWELL 5.3
2024-06-18 01:10 pm 4.3 3.6 14.8 SE 2.0 3.8 N SWELL 6.1
2024-06-18 12:40 pm 4.3 3.6 14.8SSE 2.0 5.3 NE SWELL 6.1
2024-06-18 12:10 pm 3.9 3.6 14.8 SE 2.0 5.6 NE SWELL 6.2
2024-06-18 11:40 am 4.3 3.6 14.8SSE 2.0 5.3 NE SWELL 6.1
2024-06-18 11:10 am 4.3 3.6 16.0SSE 2.0 5.3 NNE SWELL 6.5
2024-06-18 10:40 am 4.6 4.3 16.0SSE 1.6 4.5 NNE SWELL 6.8
2024-06-18 10:10 am 3.6 3.3 13.8 SE 1.6 4.0 NNE SWELL 5.9
2024-06-18 09:40 am 3.9 3.6 16.0 SE 1.6 5.3 NE SWELL 6.4
2024-06-18 09:10 am 4.3 3.9 14.8 SE 1.6 4.8 NE SWELL 6.6
2024-06-18 08:40 am 4.3 3.6 9.1 E 1.6 5.3 NE SWELL 6.4
2024-06-18 08:10 am 4.3 3.9 14.8 SE 1.6 4.5 NNE SWELL 6.5
2024-06-18 07:40 am 4.6 4.3 16.0 SE 1.3 4.5 NNE SWELL 7.0
2024-06-18 07:10 am 4.6 4.6 16.0SSE 1.3 4.0 NE SWELL 7.1
2024-06-18 06:40 am 4.3 4.3 14.8SSE 1.3 4.0 NE SWELL 6.6
2024-06-18 06:10 am 4.6 4.3 16.0SSE 1.3 3.3 NNE SWELL 7.1
2024-06-18 05:40 am 4.3 4.3 16.0 SE 1.3 3.4 ENE SWELL 6.8
2024-06-18 05:10 am 4.3 4.3 16.0SSE 1.3 3.6 NE SWELL 6.7
2024-06-18 04:40 am 4.6 4.3 16.0SSE 1.3 4.0 NE SWELL 7.1
2024-06-18 04:10 am 4.6 4.6 14.8SSE 1.6 4.2 NE SWELL 6.6
2024-06-18 03:40 am 4.6 4.3 16.0SSE 1.6 3.7 NNE SWELL 6.5
2024-06-18 03:10 am 4.6 4.3 9.1ENE 1.6 3.7 NE SWELL 6.5
2024-06-18 02:40 am 4.3 3.9 14.8 SE 1.6 4.5 NE SWELL 6.1
2024-06-18 02:10 am 4.6 4.3 9.1ESE 2.0 4.3 NE SWELL 6.3
2024-06-18 01:40 am 4.6 3.9 10.0 SE 2.0 4.3 NE SWELL 6.1
2024-06-18 01:10 am 4.6 4.3 16.0SSE 2.3 5.0 NNE SWELL 6.3
2024-06-18 12:40 am 4.6 3.9 16.0ESE 2.3 5.6 NNE SWELL 6.0
2024-06-18 12:10 am 4.6 3.9 16.0SSE 2.6 5.6 NNE SWELL 6.1
2024-06-17 11:40 pm 4.9 3.9 17.4SSE 2.6 4.0 NE SWELL 6.1
2024-06-17 11:10 pm 4.3 3.3 16.0SSE 2.6 5.9 NNE SWELL 5.6

Plot of wave energy versus frequency (and period)